Dewpoint
60 60 60 60 61 61 62 62 62 62 62 62 62 63 63 63 63 63 63 63 63 63 63 63 62 62 62 62 61 61 61 61 61 62 62 62 61 60 60 60 60 60
60 60 61 61 61 61 62 62 61 62 62 62 63 63 63 63 63 63 62 62 62 62 62 62 62 62 62 62 61 61 61 61 60 61 61 61 61 61 60 60 60 60
60 60 61 61 61 61 61 61 62 62 62 62 63 63 62 62 61 62 62 62 62 62 61 61 61 61 62 61 61 62 61 61 61 61 61 61 61 61 61 60 60 59
60 60 60 61 61 61 61 61 61 62 62 62 62 62 62 62 61 61 61 63 61 61 61 61 61 61 61 61 62 62 62 62 62 61 61 61 61 61 60 60 60 59
60 60 60 60 60 60 60 61 61 61 61 61 61 61 61 61 61 61 60 61 61 61 61 61 61 61 61 61 62 62 61 62 62 61 61 60 60 60 60 60 60 60
60 60 60 60 60 60 60 60 61 61 61 61 60 60 60 61 60 60 60 60 60 61 60 60 60 60 61 61 61 61 61 62 62 61 61 60 60 60 60 60 60 59
60 60 60 60 60 60 61 61 61 60 60 60 60 60 60 60 60 60 60 60 60 60 60 60 60 60 61 61 61 61 61 62 62 61 61 61 60 60 60 60 60 59
59 59 59 59 60 60 60 60 60 60 60 60 59 60 60 60 60 60 60 60 60 60 60 60 60 60 61 61 60 60 61 61 61 61 61 60 60 60 60 60 60 59
59 58 58 59 59 60 60 60 60 60 60 60 59 59 59 60 60 60 60 60 60 60 60 60 60 60 60 60 60 60 60 61 61 61 61 60 60 60 60 60 60 59
59 59 59 59 59 59 59 59 59 59 60 60 59 58 59 58 59 59 60 60 60 59 60 60 60 60 60 60 60 60 60 61 61 61 61 60 60 60 60 60 60 60
58 59 59 59 59 58 59 59 59 59 59 59 58 58 58 57 57 58 59 60 60 59 59 59 60 60 59 59 59 60 60 61 61 61 60 60 60 60 61 61 61 60
57 58 58 58 58 58 58 59 59 59 59 59 58 57 57 57 57 57 59 59 60 59 59 59 59 59 59 59 59 59 60 60 60 60 60 60 59 60 60 61 61 60
53 56 59 58 58 58 58 58 58 58 58 58 58 57 56 56 56 57 58 59 59 59 59 59 59 59 59 58 58 58 59 59 59 59 59 59 59 59 59 60 60 60
51 53 57 58 58 58 58 58 58 58 58 58 58 57 56 56 56 56 57 58 58 58 58 58 58 57 57 57 58 58 58 58 59 59 59 59 58 58 58 59 59 59
50 52 55 58 58 58 57 57 58 58 58 57 57 57 56 56 56 56 56 55 54 54 53 54 55 56 57 57 58 58 58 58 58 58 58 58 58 58 58 58 58 59
49 50 52 55 57 57 57 57 57 57 57 57 57 56 55 55 54 55 54 54 52 50 49 50 50 50 51 51 53 57 58 58 58 58 58 58 57 57 57 58 58 57
48 49 50 52 55 57 57 56 57 57 56 56 55 54 54 54 53 53 53 52 51 50 48 47 45 44 42 41 42 47 56 57 57 57 57 57 57 57 56 56 53 53
47 48 49 50 51 53 56 56 56 56 55 54 53 53 52 52 52 51 50 50 49 48 48 45 43 42 38 39 40 41 46 56 57 57 57 56 56 56 55 54 52 51
46 47 48 49 49 51 54 56 56 55 54 53 52 51 50 49 47 47 46 45 46 45 43 43 43 41 38 39 41 41 42 49 54 55 56 56 55 54 53 52 51 50
45 46 47 47 48 50 52 54 55 53 51 50 49 48 46 44 43 42 42 43 42 42 42 42 42 41 39 42 43 43 43 48 52 53 53 53 52 51 50 50 50 50
44 45 46 46 47 47 48 48 48 48 47 46 45 43 42 41 40 40 41 41 41 42 41 42 43 40 40 41 41 43 44 46 50 48 46 45 45 45 46 47 48 48
44 44 45 45 46 45 46 46 46 45 45 45 44 43 41 39 39 39 39 39 39 41 42 42 42 39 40 42 42 42 43 46 45 44 43 41 41 40 40 41 42 45
43 44 44 45 44 44 43 44 43 43 43 44 43 43 42 42 40 40 40 40 40 40 41 41 40 39 38 39 40 41 42 44 43 41 40 40 40 40 39 39 39 39
43 43 44 44 43 43 43 43 43 43 43 44 42 42 42 42 43 42 42 42 41 41 41 40 40 39 38 38 39 40 42 43 42 40 39 39 39 39 40 42 43 42
43 43 44 44 44 43 43 43 43 43 44 44 43 43 43 43 43 42 42 42 42 41 42 40 40 40 38 38 39 39 41 41 40 38 37 37 36 37 37 37 37 40
42 43 43 44 44 44 44 44 44 43 43 43 43 43 43 43 43 42 41 41 42 41 41 40 39 39 39 38 39 39 40 40 40 37 37 36 36 35 36 37 38 38